| time (UTC) | temp F | wind direction | speed knots | gust knots | rain 1hr in | rain 24hr in | rain mn in | humidity % | barometer mb |
| 20260510162500 | 75 | 0 | 0.0 | 9.6 | 0.00 | 0.00 | 0.00 | 40 | 1018.3 |
| 20260510162000 | 75 | 262 | 1.7 | 9.6 | 0.00 | 0.00 | 0.00 | 39 | 1018.3 |
| 20260510161500 | 74 | 0 | 0.0 | 7.8 | 0.00 | 0.00 | 0.00 | 38 | 1018.4 |
| 20260510161000 | 74 | 0 | 0.0 | 7.8 | 0.00 | 0.00 | 0.00 | 33 | 1018.4 |
| 20260510160500 | 73 | 0 | 0.0 | 7.0 | 0.00 | 0.00 | 0.00 | 35 | 1018.5 |
| 20260510160000 | 73 | 329 | 0.9 | 7.0 | 0.00 | 0.00 | 0.00 | 35 | 1018.5 |
| 20260510155500 | 73 | 329 | 1.7 | 8.7 | 0.00 | 0.00 | 0.00 | 44 | 1018.4 |
| 20260510155000 | 73 | 330 | 0.9 | 8.7 | 0.00 | 0.00 | 0.00 | 48 | 1018.4 |
| 20260510154500 | 73 | 0 | 0.0 | 5.2 | 0.00 | 0.00 | 0.00 | 48 | 1018.6 |
| 20260510154000 | 72 | 0 | 0.0 | 3.5 | 0.00 | 0.00 | 0.00 | 50 | 1018.6 |
| 20260510153503 | 72 | 0 | 0.0 | 5.2 | 0.00 | 0.00 | 0.00 | 53 | 1018.6 |
| 20260510153000 | 71 | 330 | 1.7 | 13.0 | 0.00 | 0.00 | 0.00 | 53 | 1018.5 |
| 20260510152500 | 70 | 330 | 0.9 | 13.0 | 0.00 | 0.00 | 0.00 | 56 | 1018.6 |
| 20260510152002 | 70 | 323 | 0.9 | 5.2 | 0.00 | 0.00 | 0.00 | 57 | 1018.6 |
| 20260510151500 | 70 | 323 | 1.7 | 5.2 | 0.00 | 0.00 | 0.00 | 58 | 1018.7 |
| 20260510151000 | 70 | 325 | 0.9 | 7.8 | 0.00 | 0.00 | 0.00 | 57 | 1018.6 |
| 20260510150500 | 70 | 327 | 1.7 | 7.8 | 0.00 | 0.00 | 0.00 | 60 | 1018.7 |
| 20260510150000 | 70 | 0 | 0.0 | 5.2 | 0.00 | 0.00 | 0.00 | 60 | 1018.7 |
| 20260510145500 | 70 | 0 | 0.0 | 5.2 | 0.00 | 0.00 | 0.00 | 60 | 1018.6 |
| 20260510145001 | 69 | 0 | 0.0 | 4.3 | 0.00 | 0.00 | 0.00 | 58 | 1018.5 |
| 20260510144500 | 70 | 0 | 0.0 | 8.7 | 0.00 | 0.00 | 0.00 | 59 | 1018.6 |
| 20260510144000 | 70 | 329 | 1.7 | 8.7 | 0.00 | 0.00 | 0.00 | 58 | 1018.5 |
| 20260510143501 | 69 | 0 | 0.0 | 7.8 | 0.00 | 0.00 | 0.00 | 59 | 1018.5 |
| 20260510143001 | 69 | 329 | 0.9 | 7.8 | 0.00 | 0.00 | 0.00 | 58 | 1018.6 |
| 20260510142500 | 68 | 0 | 0.0 | 7.8 | 0.00 | 0.00 | 0.00 | 60 | 1018.6 |
| 20260510142000 | 68 | 327 | 0.9 | 7.8 | 0.00 | 0.00 | 0.00 | 59 | 1018.6 |
| 20260510141500 | 67 | 0 | 0.0 | 7.0 | 0.00 | 0.00 | 0.00 | 59 | 1018.7 |
| 20260510141003 | 67 | 321 | 1.7 | 7.8 | 0.00 | 0.00 | 0.00 | 61 | 1018.7 |
| 20260510140501 | 67 | 332 | 1.7 | 10.4 | 0.00 | 0.00 | 0.00 | 58 | 1018.6 |
| 20260510140000 | 66 | 355 | 0.9 | 10.4 | 0.00 | 0.00 | 0.00 | 60 | 1018.6 |
| 20260510135502 | 66 | 312 | 3.5 | 10.4 | 0.00 | 0.00 | 0.00 | 59 | 1018.6 |
| 20260510135002 | 66 | 0 | 0.0 | 8.7 | 0.00 | 0.00 | 0.00 | 60 | 1018.7 |
| 20260510134500 | 66 | 347 | 3.5 | 8.7 | 0.00 | 0.00 | 0.00 | 59 | 1018.6 |
| 20260510134002 | 66 | 333 | 2.6 | 8.7 | 0.00 | 0.00 | 0.00 | 58 | 1018.6 |
| 20260510133500 | 66 | 321 | 1.7 | 11.3 | 0.00 | 0.00 | 0.00 | 58 | 1018.6 |
| 20260510133002 | 65 | 319 | 4.3 | 13.0 | 0.00 | 0.00 | 0.00 | 57 | 1018.5 |
| 20260510132500 | 65 | 314 | 4.3 | 13.0 | 0.00 | 0.00 | 0.00 | 59 | 1018.6 |
| 20260510132002 | 65 | 0 | 0.0 | 9.6 | 0.00 | 0.00 | 0.00 | 58 | 1018.5 |
| 20260510131500 | 65 | 339 | 1.7 | 9.6 | 0.00 | 0.00 | 0.00 | 60 | 1018.5 |
| 20260510131000 | 64 | 340 | 1.7 | 9.6 | 0.00 | 0.00 | 0.00 | 57 | 1018.4 |
| 20260510130502 | 64 | 336 | 1.7 | 7.8 | 0.00 | 0.00 | 0.00 | 61 | 1018.3 |
| 20260510130006 | 64 | 311 | 1.7 | 7.8 | 0.00 | 0.00 | 0.00 | 60 | 1018.3 |
| 20260510125500 | 63 | 327 | 1.7 | 7.8 | 0.00 | 0.00 | 0.00 | 59 | 1018.3 |
| 20260510125003 | 63 | 322 | 3.5 | 9.6 | 0.00 | 0.00 | 0.00 | 59 | 1018.2 |
| 20260510124500 | 63 | 298 | 1.7 | 9.6 | 0.00 | 0.00 | 0.00 | 61 | 1018.3 |
| 20260510124000 | 62 | 328 | 2.6 | 7.0 | 0.00 | 0.00 | 0.00 | 61 | 1018.2 |
| 20260510123501 | 62 | 317 | 1.7 | 7.8 | 0.00 | 0.00 | 0.00 | 66 | 1018.2 |
| 20260510123002 | 61 | 306 | 2.6 | 9.6 | 0.00 | 0.00 | 0.00 | 65 | 1018.1 |
| 20260510122501 | 61 | 324 | 2.6 | 9.6 | 0.00 | 0.00 | 0.00 | 65 | 1018.0 |
| 20260510122003 | 61 | 323 | 2.6 | 7.0 | 0.00 | 0.00 | 0.00 | 66 | 1018.1 |
| 20260510121501 | 61 | 323 | 3.5 | 7.0 | 0.00 | 0.00 | 0.00 | 65 | 1018.0 |
| 20260510121004 | 60 | 324 | 3.5 | 8.7 | 0.00 | 0.00 | 0.00 | 64 | 1017.8 |
| 20260510120502 | 60 | 337 | 3.5 | 8.7 | 0.00 | 0.00 | 0.00 | 65 | 1017.7 |
| 20260510115600 | 60 | 330 | 4.3 | 12.2 | 0.00 | 0.00 | 0.00 | 64 | 1017.5 |
| 20260510115100 | 60 | 329 | 3.5 | 8.7 | 0.00 | 0.00 | 0.00 | 66 | 1017.3 |
| 20260510114600 | 60 | 331 | 3.5 | 8.7 | 0.00 | 0.00 | 0.00 | 67 | 1017.3 |
| 20260510114102 | 60 | 330 | 4.3 | 8.7 | 0.00 | 0.00 | 0.00 | 66 | 1017.2 |
| 20260510113600 | 59 | 324 | 4.3 | 8.7 | 0.00 | 0.00 | 0.00 | 65 | 1017.0 |
| 20260510112819 | 59 | 322 | 3.5 | 7.8 | 0.00 | 0.00 | 0.00 | 67 | 1016.9 |
| 20260510112319 | 59 | 325 | 4.3 | 10.4 | 0.00 | 0.00 | 0.00 | 68 | 1016.7 |
| 20260510111820 | 59 | 321 | 4.3 | 13.0 | 0.00 | 0.00 | 0.00 | 67 | 1016.6 |
| 20260510111319 | 59 | 321 | 4.3 | 13.0 | 0.00 | 0.00 | 0.00 | 67 | 1016.5 |
| 20260510110820 | 58 | 321 | 6.1 | 11.3 | 0.00 | 0.00 | 0.00 | 70 | 1016.5 |
| 20260510110319 | 58 | 331 | 5.2 | 11.3 | 0.00 | 0.00 | 0.00 | 73 | 1016.4 |
| 20260510105819 | 58 | 323 | 4.3 | 13.0 | 0.00 | 0.00 | 0.00 | 74 | 1016.4 |
| 20260510105319 | 58 | 322 | 7.0 | 13.9 | 0.00 | 0.00 | 0.00 | 75 | 1016.4 |
| 20260510104819 | 58 | 326 | 8.7 | 13.9 | 0.00 | 0.00 | 0.00 | 76 | 1016.3 |
| 20260510104323 | 58 | 320 | 6.1 | 12.2 | 0.00 | 0.00 | 0.00 | 76 | 1016.3 |
| 20260510103819 | 58 | 331 | 5.2 | 12.2 | 0.00 | 0.00 | 0.00 | 76 | 1016.1 |
| 20260510103319 | 58 | 325 | 6.1 | 10.4 | 0.00 | 0.00 | 0.00 | 76 | 1016.1 |
| 20260510102819 | 58 | 321 | 6.1 | 11.3 | 0.00 | 0.00 | 0.00 | 76 | 1016.1 |
| 20260510102319 | 58 | 330 | 7.0 | 12.2 | 0.00 | 0.00 | 0.00 | 77 | 1015.9 |
| 20260510101819 | 58 | 325 | 5.2 | 12.2 | 0.00 | 0.00 | 0.00 | 76 | 1015.9 |
| 20260510101319 | 59 | 330 | 6.1 | 11.3 | 0.00 | 0.00 | 0.00 | 76 | 1015.8 |
| 20260510100819 | 59 | 328 | 6.1 | 12.2 | 0.00 | 0.00 | 0.00 | 76 | 1015.8 |
| 20260510100319 | 59 | 355 | 6.1 | 12.2 | 0.00 | 0.00 | 0.00 | 76 | 1015.8 |
| 20260510095825 | 58 | 323 | 5.2 | 11.3 | 0.00 | 0.00 | 0.00 | 76 | 1015.7 |
| 20260510095319 | 59 | 330 | 4.3 | 11.3 | 0.00 | 0.00 | 0.00 | 76 | 1015.7 |
| 20260510094820 | 59 | 330 | 4.3 | 11.3 | 0.00 | 0.00 | 0.00 | 76 | 1015.7 |
| 20260510094319 | 59 | 331 | 4.3 | 9.6 | 0.00 | 0.00 | 0.00 | 75 | 1015.6 |
| 20260510093819 | 59 | 325 | 3.5 | 11.3 | 0.00 | 0.00 | 0.00 | 75 | 1015.7 |
| 20260510093319 | 59 | 324 | 4.3 | 11.3 | 0.00 | 0.00 | 0.00 | 75 | 1015.7 |
| 20260510092820 | 59 | 319 | 4.3 | 9.6 | 0.00 | 0.00 | 0.00 | 75 | 1015.6 |
| 20260510092307 | 59 | 324 | 0.9 | 10.4 | 0.00 | 0.00 | 0.00 | 75 | 1015.6 |
| 20260510091737 | 60 | 325 | 1.7 | 7.0 | 0.00 | 0.00 | 0.00 | 74 | 1015.6 |
| 20260510091215 | 60 | 0 | 0.0 | 7.0 | 0.00 | 0.00 | 0.00 | 74 | 1015.6 |
| 20260510090211 | 60 | 324 | 0.9 | 8.7 | 0.00 | 0.00 | 0.00 | 74 | 1015.5 |
| 20260510085434 | 60 | 0 | 0.0 | 2.6 | 0.00 | 0.00 | 0.00 | 73 | 1015.6 |
| 20260510084934 | 60 | 0 | 0.0 | 7.0 | 0.00 | 0.00 | 0.00 | 73 | 1015.5 |
| 20260510084434 | 60 | 0 | 0.0 | 7.0 | 0.00 | 0.00 | 0.00 | 73 | 1015.4 |
| 20260510083934 | 60 | 0 | 0.0 | 4.3 | 0.00 | 0.00 | 0.00 | 74 | 1015.4 |
| 20260510083436 | 59 | 0 | 0.0 | 5.2 | 0.00 | 0.00 | 0.00 | 74 | 1015.3 |
| 20260510082934 | 60 | 0 | 0.0 | 7.0 | 0.00 | 0.00 | 0.00 | 74 | 1015.2 |
| 20260510082434 | 60 | 0 | 0.0 | 10.4 | 0.00 | 0.00 | 0.00 | 73 | 1015.1 |
| 20260510081934 | 60 | 321 | 3.5 | 10.4 | 0.00 | 0.00 | 0.00 | 73 | 1015.0 |
| 20260510081437 | 60 | 0 | 0.0 | 8.7 | 0.00 | 0.00 | 0.00 | 73 | 1015.0 |
| 20260510080934 | 60 | 0 | 0.0 | 13.0 | 0.00 | 0.00 | 0.00 | 73 | 1014.9 |
| 20260510080435 | 60 | 323 | 5.2 | 13.0 | 0.00 | 0.00 | 0.00 | 73 | 1014.8 |
| 20260510075935 | 60 | 324 | 2.6 | 10.4 | 0.00 | 0.00 | 0.00 | 73 | 1014.8 |
| 20260510075434 | 60 | 324 | 2.6 | 8.7 | 0.00 | 0.00 | 0.00 | 72 | 1014.8 |
| 20260510074934 | 60 | 0 | 0.0 | 13.0 | 0.00 | 0.00 | 0.00 | 72 | 1014.9 |
| 20260510074434 | 60 | 328 | 0.9 | 13.0 | 0.00 | 0.00 | 0.00 | 72 | 1014.9 |
| 20260510073935 | 60 | 328 | 0.9 | 10.4 | 0.00 | 0.00 | 0.00 | 72 | 1014.9 |
| 20260510073434 | 60 | 327 | 2.6 | 9.6 | 0.00 | 0.00 | 0.00 | 72 | 1014.8 |
| 20260510072934 | 60 | 325 | 2.6 | 9.6 | 0.00 | 0.00 | 0.00 | 72 | 1014.9 |
| 20260510072435 | 60 | 0 | 0.0 | 1.7 | 0.00 | 0.00 | 0.00 | 73 | 1014.9 |
| 20260510071934 | 60 | 0 | 0.0 | 5.2 | 0.00 | 0.00 | 0.00 | 73 | 1014.8 |
| 20260510071435 | 60 | 0 | 0.0 | 5.2 | 0.00 | 0.00 | 0.00 | 73 | 1014.6 |
| 20260510070934 | 60 | 326 | 1.7 | 7.8 | 0.00 | 0.00 | 0.00 | 73 | 1014.6 |
| 20260510070434 | 60 | 327 | 0.9 | 8.7 | 0.00 | 0.00 | 0.00 | 73 | 1014.6 |
| 20260510065934 | 61 | 326 | 2.6 | 8.7 | 0.00 | 0.00 | 0.00 | 73 | 1014.7 |
| 20260510065434 | 60 | 327 | 0.9 | 7.0 | 0.00 | 0.00 | 0.00 | 74 | 1014.7 |
| 20260510064934 | 61 | 0 | 0.0 | 4.3 | 0.00 | 0.00 | 0.00 | 73 | 1014.7 |
| 20260510064434 | 61 | 0 | 0.0 | 5.2 | 0.00 | 0.00 | 0.00 | 74 | 1014.8 |
| 20260510063934 | 61 | 325 | 0.9 | 5.2 | 0.00 | 0.00 | 0.00 | 73 | 1014.7 |
| 20260510063434 | 61 | 325 | 1.7 | 5.2 | 0.00 | 0.00 | 0.00 | 74 | 1014.5 |
| 20260510062837 | 61 | 324 | 3.5 | 5.2 | 0.00 | 0.00 | 0.00 | 73 | 1014.5 |
| 20260510062337 | 61 | 0 | 0.0 | 5.2 | 0.00 | 0.00 | 0.00 | 73 | 1014.7 |
| 20260510061837 | 61 | 323 | 1.7 | 4.3 | 0.00 | 0.00 | 0.00 | 73 | 1014.7 |
| 20260510061337 | 61 | 0 | 0.0 | 8.7 | 0.00 | 0.00 | 0.00 | 73 | 1014.7 |
| 20260510060837 | 61 | 0 | 0.0 | 8.7 | 0.00 | 0.00 | 0.00 | 75 | 1014.7 |
| 20260510060338 | 61 | 322 | 3.5 | 9.6 | 0.00 | 0.00 | 0.00 | 76 | 1014.6 |
| 20260510060133 | 61 | 317 | 3.5 | 9.6 | 0.00 | 0.00 | 0.00 | 76 | 1014.7 |
| 20260510055837 | 61 | 317 | 3.5 | 9.6 | 0.00 | 0.00 | 0.00 | 76 | 1014.7 |
| 20260510055338 | 61 | 325 | 0.9 | 7.0 | 0.00 | 0.00 | 0.00 | 82 | 1014.8 |
| 20260510054837 | 61 | 321 | 0.9 | 7.0 | 0.00 | 0.00 | 0.00 | 85 | 1014.8 |
| 20260510054337 | 61 | 317 | 0.9 | 7.8 | 0.00 | 0.00 | 0.00 | 87 | 1014.9 |
| 20260510053837 | 61 | 320 | 1.7 | 7.8 | 0.00 | 0.00 | 0.00 | 89 | 1014.8 |
| 20260510053337 | 61 | 322 | 0.9 | 7.0 | 0.00 | 0.00 | 0.00 | 90 | 1014.8 |
| 20260510052838 | 61 | 0 | 0.0 | 5.2 | 0.00 | 0.00 | 0.00 | 90 | 1015.0 |
| 20260510052337 | 61 | 322 | 0.9 | 7.0 | 0.00 | 0.00 | 0.00 | 90 | 1015.0 |
| 20260510051837 | 61 | 323 | 0.9 | 8.7 | 0.00 | 0.00 | 0.00 | 90 | 1015.0 |
| 20260510051338 | 61 | 322 | 2.6 | 8.7 | 0.00 | 0.00 | 0.00 | 90 | 1015.1 |
| 20260510050837 | 61 | 0 | 0.0 | 7.8 | 0.00 | 0.00 | 0.00 | 90 | 1015.1 |
| 20260510050337 | 61 | 320 | 1.7 | 7.8 | 0.00 | 0.00 | 0.00 | 90 | 1015.0 |
| 20260510045837 | 61 | 322 | 0.9 | 5.2 | 0.00 | 0.00 | 0.00 | 90 | 1015.1 |
| 20260510045339 | 61 | 321 | 0.9 | 7.0 | 0.00 | 0.00 | 0.00 | 90 | 1015.2 |
| 20260510044837 | 61 | 321 | 0.9 | 12.2 | 0.00 | 0.00 | 0.00 | 90 | 1015.3 |
| 20260510044338 | 61 | 0 | 0.0 | 12.2 | 0.00 | 0.00 | 0.00 | 90 | 1015.1 |
| 20260510043837 | 61 | 323 | 1.7 | 9.6 | 0.00 | 0.00 | 0.00 | 90 | 1015.1 |
| 20260510043340 | 61 | 320 | 0.9 | 9.6 | 0.00 | 0.00 | 0.00 | 90 | 1015.2 |
| 20260510042840 | 61 | 283 | 0.9 | 7.0 | 0.00 | 0.00 | 0.00 | 90 | 1015.2 |
| 20260510042340 | 61 | 285 | 0.9 | 7.0 | 0.00 | 0.00 | 0.00 | 90 | 1015.2 |
| 20260510041720 | 62 | 0 | 0.0 | 7.0 | 0.00 | 0.00 | 0.00 | 89 | 1015.2 |
| 20260510041220 | 62 | 0 | 0.0 | 9.6 | 0.00 | 0.00 | 0.00 | 89 | 1015.2 |
| 20260510040720 | 62 | 324 | 0.9 | 9.6 | 0.00 | 0.00 | 0.00 | 89 | 1015.2 |
| 20260510040220 | 62 | 0 | 0.0 | 7.0 | 0.00 | 0.00 | 0.00 | 89 | 1015.3 |
| 20260510035720 | 62 | 0 | 0.0 | 7.0 | 0.00 | 0.00 | 0.00 | 89 | 1015.3 |
| 20260510035222 | 62 | 0 | 0.0 | 7.8 | 0.00 | 0.00 | 0.00 | 89 | 1015.4 |
| 20260510034721 | 61 | 248 | 0.9 | 13.9 | 0.00 | 0.00 | 0.00 | 90 | 1015.3 |
| 20260510034221 | 61 | 248 | 0.9 | 13.9 | 0.00 | 0.00 | 0.00 | 90 | 1015.3 |
| 20260510033721 | 61 | 0 | 0.0 | 3.5 | 0.00 | 0.00 | 0.00 | 90 | 1015.3 |
| 20260510033222 | 61 | 0 | 0.0 | 6.1 | 0.00 | 0.00 | 0.00 | 90 | 1015.4 |
| 20260510033105 | 61 | 0 | 0.0 | 6.1 | 0.00 | 0.00 | 0.00 | 90 | 1015.4 |
| 20260510032720 | 61 | 0 | 0.0 | 6.1 | 0.00 | 0.00 | 0.00 | 90 | 1015.4 |
| 20260510032222 | 61 | 0 | 0.0 | 5.2 | 0.00 | 0.00 | 0.00 | 90 | 1015.3 |
| 20260510031720 | 61 | 0 | 0.0 | 6.1 | 0.00 | 0.00 | 0.00 | 90 | 1015.3 |
| 20260510031221 | 61 | 0 | 0.0 | 6.1 | 0.00 | 0.00 | 0.00 | 89 | 1015.3 |
| 20260510030720 | 61 | 202 | 1.7 | 7.0 | 0.00 | 0.00 | 0.00 | 89 | 1015.2 |
| 20260510030220 | 61 | 0 | 0.0 | 7.0 | 0.00 | 0.00 | 0.00 | 89 | 1015.2 |
| 20260510025722 | 61 | 0 | 0.0 | 6.1 | 0.00 | 0.00 | 0.00 | 89 | 1015.1 |
| 20260510025221 | 61 | 202 | 0.9 | 6.1 | 0.00 | 0.00 | 0.00 | 88 | 1015.1 |
| 20260510024720 | 62 | 202 | 1.7 | 7.0 | 0.00 | 0.00 | 0.00 | 88 | 1015.0 |
| 20260510024221 | 62 | 202 | 0.9 | 7.0 | 0.00 | 0.00 | 0.00 | 88 | 1015.1 |
| 20260510023722 | 62 | 0 | 0.0 | 6.1 | 0.00 | 0.00 | 0.00 | 88 | 1015.0 |
| 20260510023220 | 62 | 0 | 0.0 | 6.1 | 0.00 | 0.00 | 0.00 | 88 | 1015.0 |
| 20260510022720 | 62 | 199 | 0.9 | 7.0 | 0.00 | 0.00 | 0.00 | 88 | 1014.8 |
| 20260510022221 | 62 | 199 | 2.6 | 7.8 | 0.00 | 0.00 | 0.00 | 88 | 1014.9 |
| 20260510021720 | 62 | 200 | 2.6 | 15.6 | 0.00 | 0.00 | 0.00 | 87 | 1014.8 |
| 20260510021220 | 62 | 201 | 2.6 | 15.6 | 0.00 | 0.00 | 0.00 | 87 | 1014.7 |
| 20260510020339 | 62 | 203 | 2.6 | 13.9 | 0.00 | 0.00 | 0.00 | 87 | 1014.6 |
| 20260510015837 | 62 | 204 | 1.7 | 15.6 | 0.00 | 0.00 | 0.00 | 87 | 1014.6 |
| 20260510015337 | 62 | 199 | 6.1 | 15.6 | 0.00 | 0.00 | 0.00 | 86 | 1014.5 |
| 20260510014837 | 62 | 200 | 5.2 | 14.8 | 0.00 | 0.00 | 0.00 | 86 | 1014.5 |
| 20260510014337 | 63 | 206 | 6.1 | 13.9 | 0.00 | 0.00 | 0.00 | 86 | 1014.5 |
| 20260510013837 | 63 | 201 | 6.1 | 14.8 | 0.00 | 0.00 | 0.00 | 85 | 1014.4 |
| 20260510013337 | 63 | 199 | 5.2 | 14.8 | 0.00 | 0.00 | 0.00 | 85 | 1014.2 |
| 20260510012756 | 63 | 197 | 3.5 | 11.3 | 0.00 | 0.00 | 0.00 | 85 | 1014.1 |
| 20260510012255 | 63 | 200 | 2.6 | 11.3 | 0.00 | 0.00 | 0.00 | 85 | 1014.1 |
| 20260510011756 | 63 | 201 | 4.3 | 13.0 | 0.00 | 0.00 | 0.00 | 85 | 1013.9 |
| 20260510011255 | 63 | 197 | 6.1 | 13.0 | 0.00 | 0.00 | 0.00 | 84 | 1013.9 |
| 20260510010755 | 63 | 199 | 6.1 | 13.9 | 0.00 | 0.00 | 0.00 | 85 | 1013.7 |
| 20260510010255 | 63 | 199 | 7.0 | 13.9 | 0.00 | 0.00 | 0.00 | 84 | 1013.7 |
| 20260510005755 | 63 | 198 | 6.1 | 10.4 | 0.00 | 0.00 | 0.00 | 84 | 1013.6 |
| 20260510005255 | 63 | 199 | 3.5 | 9.6 | 0.00 | 0.00 | 0.00 | 84 | 1013.5 |
| 20260510004755 | 63 | 199 | 2.6 | 10.4 | 0.00 | 0.00 | 0.00 | 83 | 1013.4 |
| 20260510004255 | 64 | 200 | 3.5 | 10.4 | 0.00 | 0.00 | 0.00 | 83 | 1013.4 |
| 20260510003755 | 64 | 199 | 3.5 | 9.6 | 0.00 | 0.00 | 0.00 | 82 | 1013.2 |
| 20260510003255 | 64 | 199 | 2.6 | 9.6 | 0.00 | 0.00 | 0.00 | 82 | 1013.1 |
| 20260510002755 | 64 | 199 | 3.5 | 9.6 | 0.00 | 0.00 | 0.00 | 81 | 1013.1 |
| 20260510002255 | 64 | 199 | 2.6 | 10.4 | 0.00 | 0.00 | 0.00 | 81 | 1013.1 |
| 20260510001755 | 64 | 198 | 1.7 | 10.4 | 0.00 | 0.00 | 0.00 | 80 | 1013.0 |
| 20260510001255 | 64 | 200 | 3.5 | 7.8 | 0.00 | 0.00 | 0.00 | 80 | 1013.2 |
| 20260510000755 | 65 | 199 | 3.5 | 8.7 | 0.00 | 0.00 | 0.00 | 79 | 1013.1 |
| 20260510000256 | 65 | 199 | 2.6 | 8.7 | 0.00 | 0.00 | 0.00 | 79 | 1013.0 |
| 20260509235755 | 65 | 201 | 4.3 | 8.7 | 0.00 | 0.00 | 0.00 | 79 | 1012.9 |
| 20260509235257 | 65 | 200 | 2.6 | 7.8 | 0.00 | 0.00 | 0.00 | 78 | 1013.0 |
| 20260509234755 | 65 | 200 | 3.5 | 9.6 | 0.00 | 0.00 | 0.00 | 78 | 1013.0 |
| 20260509234255 | 65 | 198 | 3.5 | 9.6 | 0.00 | 0.00 | 0.00 | 78 | 1012.9 |
| 20260509233755 | 65 | 196 | 3.5 | 8.7 | 0.00 | 0.00 | 0.00 | 77 | 1013.0 |
| 20260509233255 | 65 | 197 | 3.5 | 7.8 | 0.00 | 0.00 | 0.00 | 76 | 1012.9 |
| 20260509232755 | 65 | 195 | 2.6 | 7.0 | 0.00 | 0.00 | 0.00 | 76 | 1012.8 |
| 20260509232255 | 65 | 192 | 1.7 | 7.0 | 0.00 | 0.00 | 0.00 | 76 | 1011.8 |
| 20260509231755 | 66 | 196 | 2.6 | 7.0 | 0.00 | 0.00 | 0.00 | 76 | 1011.7 |
| 20260509231254 | 66 | 193 | 2.6 | 6.1 | 0.00 | 0.00 | 0.00 | 75 | 1011.7 |
| 20260509230754 | 66 | 204 | 2.6 | 7.0 | 0.00 | 0.00 | 0.00 | 74 | 1011.8 |
| 20260509230255 | 66 | 200 | 2.6 | 7.0 | 0.00 | 0.00 | 0.00 | 74 | 1011.6 |
| 20260509225755 | 66 | 193 | 0.9 | 6.1 | 0.00 | 0.00 | 0.00 | 74 | 1011.6 |
| 20260509225255 | 67 | 193 | 0.9 | 5.2 | 0.00 | 0.00 | 0.00 | 72 | 1011.5 |
| 20260509224755 | 67 | 193 | 0.9 | 5.2 | 0.00 | 0.00 | 0.00 | 72 | 1011.4 |
| 20260509224257 | 67 | 0 | 0.0 | 7.0 | 0.00 | 0.00 | 0.00 | 71 | 1011.4 |
| 20260509223755 | 67 | 0 | 0.0 | 7.0 | 0.00 | 0.00 | 0.00 | 71 | 1011.4 |
| 20260509223257 | 67 | 197 | 0.9 | 4.3 | 0.00 | 0.00 | 0.00 | 71 | 1011.3 |
| 20260509222544 | 67 | 197 | 0.9 | 7.0 | 0.00 | 0.00 | 0.00 | 71 | 1011.5 |
| 20260509222044 | 67 | 197 | 2.6 | 7.0 | 0.00 | 0.00 | 0.00 | 70 | 1011.3 |
| 20260509221544 | 67 | 0 | 0.0 | 2.6 | 0.00 | 0.00 | 0.00 | 70 | 1011.4 |
| 20260509221044 | 68 | 0 | 0.0 | 7.0 | 0.00 | 0.00 | 0.00 | 70 | 1011.5 |
| 20260509220544 | 68 | 196 | 0.9 | 7.0 | 0.00 | 0.00 | 0.00 | 70 | 1011.4 |
| 20260509220044 | 67 | 199 | 2.6 | 7.0 | 0.00 | 0.00 | 0.00 | 69 | 1011.4 |
| 20260509215544 | 67 | 0 | 0.0 | 6.1 | 0.00 | 0.00 | 0.00 | 70 | 1011.5 |
| 20260509215044 | 67 | 199 | 1.7 | 6.1 | 0.00 | 0.00 | 0.00 | 69 | 1011.5 |
| 20260509214544 | 67 | 199 | 1.7 | 7.0 | 0.00 | 0.00 | 0.00 | 69 | 1011.5 |
| 20260509214044 | 67 | 199 | 2.6 | 7.0 | 0.00 | 0.00 | 0.00 | 69 | 1011.3 |
| 20260509213544 | 67 | 199 | 0.9 | 5.2 | 0.00 | 0.00 | 0.00 | 69 | 1011.1 |
| 20260509213044 | 68 | 199 | 0.9 | 6.1 | 0.00 | 0.00 | 0.00 | 68 | 1011.2 |
| 20260509212544 | 68 | 199 | 2.6 | 7.8 | 0.00 | 0.00 | 0.00 | 68 | 1011.3 |
| 20260509212044 | 68 | 194 | 3.5 | 7.8 | 0.00 | 0.00 | 0.00 | 67 | 1011.4 |
| 20260509211544 | 69 | 191 | 2.6 | 5.2 | 0.00 | 0.00 | 0.00 | 67 | 1011.3 |
| 20260509211044 | 69 | 189 | 1.7 | 5.2 | 0.00 | 0.00 | 0.00 | 66 | 1011.3 |
| 20260509210051 | 69 | 200 | 2.6 | 7.8 | 0.00 | 0.00 | 0.00 | 68 | 1010.9 |
| 20260509205551 | 69 | 204 | 2.6 | 7.8 | 0.00 | 0.00 | 0.00 | 66 | 1010.9 |
| 20260509205051 | 69 | 198 | 3.5 | 7.8 | 0.00 | 0.00 | 0.00 | 67 | 1010.9 |
| 20260509204551 | 69 | 189 | 2.6 | 7.0 | 0.00 | 0.00 | 0.00 | 66 | 1010.9 |
| 20260509204052 | 69 | 187 | 2.6 | 6.1 | 0.00 | 0.00 | 0.00 | 64 | 1010.9 |
| 20260509203551 | 69 | 185 | 1.7 | 6.1 | 0.00 | 0.00 | 0.00 | 66 | 1011.0 |
| 20260509203051 | 70 | 185 | 2.6 | 6.1 | 0.00 | 0.00 | 0.00 | 66 | 1011.0 |
| 20260509202420 | 70 | 182 | 2.6 | 7.0 | 0.00 | 0.00 | 0.00 | 66 | 1011.0 |
| 20260509201920 | 70 | 199 | 2.6 | 7.0 | 0.00 | 0.00 | 0.00 | 65 | 1011.0 |
| 20260509201421 | 70 | 195 | 1.7 | 7.8 | 0.00 | 0.00 | 0.00 | 65 | 1011.0 |
| 20260509200921 | 69 | 0 | 0.0 | 7.8 | 0.00 | 0.00 | 0.00 | 63 | 1011.0 |
| 20260509200421 | 70 | 190 | 2.6 | 9.6 | 0.00 | 0.00 | 0.00 | 62 | 1011.1 |
| 20260509195920 | 70 | 203 | 4.3 | 9.6 | 0.00 | 0.00 | 0.00 | 61 | 1011.1 |
| 20260509195420 | 70 | 193 | 2.6 | 11.3 | 0.00 | 0.00 | 0.00 | 62 | 1011.1 |
| 20260509194920 | 70 | 196 | 4.3 | 11.3 | 0.00 | 0.00 | 0.00 | 62 | 1011.1 |
| 20260509194420 | 70 | 196 | 2.6 | 10.4 | 0.00 | 0.00 | 0.00 | 66 | 1011.3 |
| 20260509193920 | 68 | 199 | 1.7 | 8.7 | 0.00 | 0.00 | 0.00 | 65 | 1011.4 |
| 20260509193420 | 68 | 198 | 3.5 | 8.7 | 0.00 | 0.00 | 0.00 | 64 | 1011.5 |
| 20260509192920 | 70 | 194 | 2.6 | 10.4 | 0.00 | 0.00 | 0.00 | 62 | 1011.5 |
| 20260509192420 | 71 | 190 | 3.5 | 10.4 | 0.00 | 0.00 | 0.00 | 62 | 1011.5 |
| 20260509191920 | 70 | 193 | 4.3 | 10.4 | 0.00 | 0.00 | 0.00 | 64 | 1011.6 |
| 20260509191420 | 70 | 192 | 3.5 | 8.7 | 0.00 | 0.00 | 0.00 | 63 | 1011.6 |
| 20260509190920 | 70 | 184 | 2.6 | 8.7 | 0.00 | 0.00 | 0.00 | 61 | 1011.6 |
| 20260509190420 | 70 | 176 | 2.6 | 8.7 | 0.00 | 0.00 | 0.00 | 61 | 1011.5 |
| 20260509185920 | 70 | 185 | 1.7 | 6.1 | 0.00 | 0.00 | 0.00 | 62 | 1011.4 |
| 20260509185420 | 69 | 192 | 0.9 | 6.1 | 0.00 | 0.00 | 0.00 | 63 | 1011.4 |
| 20260509184558 | 68 | 201 | 3.5 | 7.8 | 0.00 | 0.00 | 0.00 | 64 | 1011.5 |
| 20260509184057 | 69 | 196 | 1.7 | 7.0 | 0.00 | 0.00 | 0.00 | 64 | 1011.7 |
| 20260509183558 | 68 | 195 | 2.6 | 7.0 | 0.00 | 0.00 | 0.00 | 66 | 1011.8 |
| 20260509183057 | 68 | 186 | 2.6 | 10.4 | 0.00 | 0.00 | 0.00 | 64 | 1011.9 |
| 20260509182558 | 68 | 201 | 2.6 | 10.4 | 0.00 | 0.00 | 0.00 | 66 | 1011.8 |
| 20260509182058 | 68 | 202 | 3.5 | 7.8 | 0.00 | 0.00 | 0.00 | 62 | 1012.0 |
| 20260509181557 | 68 | 171 | 1.7 | 7.8 | 0.00 | 0.00 | 0.00 | 66 | 1012.0 |
| 20260509181057 | 67 | 190 | 2.6 | 7.0 | 0.00 | 0.00 | 0.00 | 68 | 1012.2 |
| 20260509180557 | 67 | 196 | 2.6 | 8.7 | 0.00 | 0.00 | 0.00 | 67 | 1012.2 |
| 20260509180057 | 67 | 204 | 0.9 | 8.7 | 0.00 | 0.00 | 0.00 | 69 | 1012.2 |
| 20260509175558 | 67 | 197 | 0.9 | 6.1 | 0.00 | 0.00 | 0.00 | 70 | 1012.4 |
| 20260509175058 | 66 | 200 | 1.7 | 7.8 | 0.00 | 0.00 | 0.00 | 67 | 1012.6 |
| 20260509174558 | 66 | 198 | 0.9 | 7.8 | 0.00 | 0.00 | 0.00 | 68 | 1012.6 |
| 20260509174059 | 66 | 204 | 0.9 | 7.8 | 0.00 | 0.00 | 0.00 | 69 | 1012.5 |
| 20260509173557 | 66 | 0 | 0.0 | 8.7 | 0.00 | 0.00 | 0.00 | 70 | 1012.8 |
| 20260509173057 | 67 | 197 | 3.5 | 8.7 | 0.00 | 0.00 | 0.00 | 67 | 1012.6 |
| 20260509172557 | 68 | 202 | 0.9 | 6.1 | 0.00 | 0.00 | 0.00 | 67 | 1012.6 |
| 20260509172057 | 68 | 197 | 1.7 | 6.1 | 0.00 | 0.00 | 0.00 | 66 | 1012.8 |
| 20260509171557 | 67 | 200 | 1.7 | 5.2 | 0.00 | 0.00 | 0.00 | 67 | 1012.6 |
| 20260509171057 | 66 | 207 | 0.9 | 7.8 | 0.00 | 0.00 | 0.00 | 70 | 1012.7 |
| 20260509170557 | 66 | 0 | 0.0 | 7.8 | 0.00 | 0.00 | 0.00 | 70 | 1012.9 |
| 20260509170057 | 66 | 196 | 1.7 | 7.8 | 0.00 | 0.00 | 0.00 | 72 | 1013.0 |
| 20260509165557 | 64 | 190 | 1.7 | 9.6 | 0.00 | 0.00 | 0.00 | 72 | 1013.0 |
| 20260509165059 | 65 | 199 | 2.6 | 9.6 | 0.00 | 0.00 | 0.00 | 72 | 1013.0 |
| 20260509164558 | 65 | 197 | 4.3 | 9.6 | 0.00 | 0.00 | 0.00 | 73 | 1013.1 |
| 20260509163941 | 64 | 0 | 0.0 | 7.8 | 0.00 | 0.00 | 0.00 | 74 | 1013.2 |
| 20260509163441 | 63 | 197 | 0.9 | 7.8 | 0.00 | 0.00 | 0.00 | 78 | 1013.2 |
| 20260509162941 | 64 | 198 | 1.7 | 7.8 | 0.00 | 0.00 | 0.00 | 75 | 1013.4 |